period_start,C,m1,H,J0,J1,J2,J3,J4,J5,JA,JB,JC,JD,JJ,JK,JN,#
2016-10-06 00:00:13,0.10,1.80,0.00,24.95,28.45,31.28,14.53,46.24,1033.46,2028.56,2786.11,2668.45,2996.27,599.57,601.52,28.77,0000 0000 0000 0000 000000
2016-10-06 00:05:14,0.18,1.81,0.00,24.95,28.45,31.28,14.67,46.56,1033.52,2028.64,2783.61,2666.57,2994.22,600.51,602.60,28.82,0000 0000 0000 0000 000000
2016-10-06 00:10:15,0.17,1.82,0.00,24.95,28.45,31.28,14.61,46.22,1033.41,2028.71,2780.50,2664.36,2991.82,600.24,602.10,28.87,0000 0000 0000 0000 000000
2016-10-06 00:15:17,0.09,1.82,0.00,24.97,28.45,31.29,14.62,46.38,1033.52,2028.59,2778.50,2662.88,2990.21,600.22,602.20,28.92,0000 0000 0000 0000 000000
2016-10-06 00:20:18,0.16,1.83,0.00,24.98,28.45,31.30,14.51,46.35,1033.66,2028.55,2775.96,2661.06,2988.14,600.10,602.10,28.97,0000 0000 0000 0000 000000
2016-10-06 00:25:20,0.15,1.84,0.00,24.98,28.45,31.30,14.59,46.35,1033.71,2028.49,2773.27,2659.16,2986.02,600.08,602.11,29.02,0000 0000 0000 0000 000000
2016-10-06 00:30:21,0.12,1.85,0.00,24.98,28.45,31.28,14.61,46.44,1033.71,2028.56,2770.89,2657.51,2984.11,599.72,601.74,29.07,0000 0000 0000 0000 000000
2016-10-06 00:35:23,0.14,1.85,0.00,24.99,28.45,31.27,14.66,46.23,1033.71,2028.39,2768.51,2655.72,2982.21,600.55,602.59,29.12,0000 0000 0000 0000 000000
2016-10-06 00:40:24,0.14,1.86,0.00,24.97,28.45,31.25,14.54,46.33,1033.71,2028.34,2765.91,2653.89,2980.25,599.98,602.03,29.17,0000 0000 0000 0000 000000
2016-10-06 00:45:25,0.13,1.87,0.00,24.98,28.45,31.26,14.56,46.20,1033.71,2028.30,2763.49,2652.13,2978.27,599.89,601.92,29.22,0000 0000 0000 0000 000000
2016-10-06 00:50:27,0.17,1.87,0.00,24.96,28.45,31.28,14.52,46.24,1033.71,2028.17,2760.46,2650.07,2975.93,599.86,601.98,29.27,0000 0000 0000 0000 000000
2016-10-06 00:55:28,0.11,1.88,0.00,24.92,28.45,31.28,14.60,46.32,1033.71,2028.09,2758.06,2648.45,2974.09,600.13,602.17,29.32,0000 0000 0000 0000 000000
2016-10-06 01:00:29,0.13,1.89,0.00,24.92,28.45,31.28,14.67,46.37,1033.71,2028.23,2756.25,2647.14,2972.67,600.26,602.40,29.37,0000 0000 0000 0000 000000
2016-10-06 01:05:31,0.11,1.89,0.00,24.95,28.45,31.29,14.53,46.47,1033.70,2028.12,2754.18,2645.66,2971.06,599.90,602.02,29.42,0000 0000 0000 0000 000000
2016-10-06 01:10:32,0.15,1.90,0.00,24.95,28.45,31.28,14.48,46.38,1033.71,2028.13,2751.67,2643.85,2969.02,599.86,601.94,29.47,0000 0000 0000 0000 000000
2016-10-06 01:15:34,0.15,1.91,0.00,24.96,28.45,31.28,14.52,46.33,1033.71,2028.09,2749.17,2642.00,2967.00,599.89,601.96,29.52,0000 0000 0000 0000 000000
2016-10-06 01:20:35,0.12,1.92,0.00,24.95,28.45,31.29,14.60,46.42,1033.71,2028.09,2746.98,2640.45,2965.28,600.10,602.17,29.57,0000 0000 0000 0000 000000
2016-10-06 01:25:36,0.12,1.92,0.00,24.95,28.46,31.26,14.59,46.36,1033.71,2028.11,2744.97,2639.07,2963.60,600.07,602.09,29.62,0000 0000 0000 0000 000000
2016-10-06 01:30:37,0.11,1.93,0.00,25.01,28.47,31.28,14.57,46.31,1033.71,2028.17,2743.28,2637.78,2962.27,599.99,601.97,29.67,0000 0000 0000 0000 000000
2016-10-06 01:35:39,0.10,1.93,0.00,25.00,28.47,31.26,14.52,46.30,1033.71,2028.15,2741.38,2636.44,2960.81,599.38,601.33,29.72,0000 0000 0000 0000 000000
2016-10-06 01:40:40,0.04,1.93,0.00,25.00,28.47,31.27,14.54,46.41,1033.72,2028.09,2740.27,2635.70,2959.92,599.45,601.35,29.77,0000 0000 0000 0000 000000
2016-10-06 01:45:42,0.08,1.94,0.00,24.98,28.47,31.27,14.57,46.28,1033.71,2028.04,2738.92,2634.75,2958.83,600.17,602.16,29.82,0000 0000 0000 0000 000000
2016-10-06 01:50:43,0.12,1.95,0.00,24.99,28.47,31.27,14.65,46.42,1033.71,2028.11,2737.09,2633.42,2957.35,600.19,602.20,29.87,0000 0000 0000 0000 000000
2016-10-06 01:55:44,0.08,1.95,0.00,25.00,28.47,31.29,14.58,46.38,1033.71,2028.11,2735.30,2632.14,2956.06,599.77,601.72,29.92,0000 0000 0000 0000 000000
2016-10-06 02:00:45,0.05,1.95,0.00,24.97,28.47,31.32,14.59,46.42,1033.72,2028.03,2734.42,2631.64,2955.23,600.03,602.00,29.97,0000 0000 0000 0000 000000
2016-10-06 02:05:46,0.04,1.96,0.00,24.99,28.47,31.29,14.59,46.45,1033.72,2028.03,2733.70,2631.00,2954.68,600.10,602.15,30.02,0000 0000 0000 0000 000000
2016-10-06 02:10:48,0.10,1.96,0.00,25.01,28.48,31.30,14.56,46.46,1033.71,2028.02,2732.11,2629.89,2953.44,599.86,601.83,30.07,0000 0000 0000 0000 000000
2016-10-06 02:15:49,0.13,1.97,0.00,25.02,28.49,31.28,14.57,46.38,1033.71,2028.02,2729.89,2628.44,2951.69,599.81,601.77,30.12,0000 0000 0000 0000 000000
2016-10-06 02:20:50,0.13,1.97,0.00,25.05,28.50,31.28,14.53,46.38,1033.72,2028.02,2727.63,2626.82,2949.88,599.61,601.54,30.17,0000 0000 0000 0000 000000
2016-10-06 02:25:52,0.11,1.98,0.00,25.01,28.50,31.30,14.63,46.41,1033.72,2028.03,2725.66,2625.54,2948.48,600.22,602.20,30.22,0000 0000 0000 0000 000000
2016-10-06 02:30:53,0.08,1.98,0.00,24.97,28.50,31.28,14.60,46.44,1033.73,2028.00,2724.00,2624.33,2947.17,599.90,601.92,30.27,0000 0000 0000 0000 000000
2016-10-06 02:35:54,0.06,1.99,0.00,24.97,28.50,31.29,14.53,46.44,1033.73,2028.00,2722.93,2623.68,2946.39,599.61,601.57,30.32,0000 0000 0000 0000 000000
2016-10-06 02:40:55,0.06,1.99,0.00,24.97,28.50,31.28,14.50,46.26,1033.73,2028.00,2721.59,2622.97,2945.33,600.09,602.18,30.37,0000 0000 0000 0000 000000
2016-10-06 02:45:57,0.07,2.00,0.00,25.00,28.50,31.33,14.52,46.48,1033.74,2028.00,2720.28,2622.03,2944.32,599.66,601.74,30.42,0000 0000 0000 0000 000000
2016-10-06 02:50:58,0.08,2.00,0.00,25.00,28.51,31.30,14.57,46.45,1033.75,2028.00,2718.78,2621.07,2943.28,599.73,601.62,30.47,0000 0000 0000 0000 000000
2016-10-06 02:55:59,0.08,2.00,0.00,25.04,28.52,31.31,14.61,46.44,1033.73,2028.00,2717.52,2620.14,2942.25,599.98,601.91,30.52,0000 0000 0000 0000 000000
2016-10-06 03:01:00,0.07,2.01,0.00,25.03,28.52,31.30,14.50,46.30,1033.73,2028.00,2716.24,2619.35,2941.28,599.72,601.70,30.57,0000 0000 0000 0000 000000
2016-10-06 03:06:02,0.09,2.01,0.00,25.04,28.52,31.29,14.66,46.41,1033.72,2028.00,2714.69,2618.28,2940.16,600.29,602.24,30.62,0000 0000 0000 0000 000000
2016-10-06 03:11:03,0.06,2.01,0.00,25.07,28.52,31.28,14.57,46.23,1033.72,2028.00,2713.64,2617.56,2939.20,599.99,601.83,30.67,0000 0000 0000 0000 000000
2016-10-06 03:16:04,0.07,2.02,0.00,25.06,28.52,31.29,14.48,46.27,1033.73,2028.00,2712.48,2616.69,2938.30,599.66,601.55,30.72,0000 0000 0000 0000 000000
2016-10-06 03:21:06,0.10,2.02,0.00,25.02,28.53,31.29,14.60,46.33,1033.74,2028.00,2710.86,2615.64,2937.00,599.93,601.86,30.77,0000 0000 0000 0000 000000
2016-10-06 03:26:07,0.11,2.03,0.00,25.02,28.55,31.29,14.55,46.30,1033.81,2028.00,2708.79,2614.15,2935.48,599.72,601.78,30.82,0000 0000 0000 0000 000000
2016-10-06 03:31:09,0.15,2.04,0.00,25.04,28.55,31.31,14.59,46.27,1034.02,2028.00,2706.38,2612.55,2933.62,599.91,602.08,30.87,0000 0000 0000 0000 000000
2016-10-06 03:36:10,0.10,2.04,0.00,25.00,28.55,31.31,14.55,46.22,1034.05,2028.00,2704.27,2611.08,2931.95,599.95,602.09,30.92,0000 0000 0000 0000 000000
2016-10-06 03:41:11,0.07,2.05,0.00,25.00,28.55,31.29,14.61,46.41,1034.05,2028.00,2703.20,2610.15,2931.06,600.46,602.55,30.97,0000 0000 0000 0000 000000
2016-10-06 03:46:13,0.06,2.05,0.00,25.04,28.55,31.33,14.55,46.33,1034.10,2028.00,2702.20,2609.48,2930.22,600.22,602.34,31.02,0000 0000 0000 0000 000000
2016-10-06 03:51:14,0.03,2.05,0.00,25.04,28.56,31.30,14.56,46.22,1034.17,2028.00,2701.40,2609.00,2929.70,599.88,602.10,31.07,0000 0000 0000 0000 000000
2016-10-06 03:56:15,0.06,2.05,0.00,25.08,28.57,31.33,14.63,46.34,1034.19,2027.99,2700.53,2608.36,2928.83,600.12,602.31,31.12,0000 0000 0000 0000 000000
2016-10-06 04:01:16,0.05,2.06,0.00,25.05,28.57,31.33,14.49,46.19,1034.19,2027.98,2699.36,2607.69,2928.03,599.92,602.24,31.17,0000 0000 0000 0000 000000
2016-10-06 04:06:18,0.04,2.06,0.00,25.02,28.57,31.31,14.62,46.41,1034.19,2027.99,2698.70,2607.03,2927.51,599.97,602.09,31.22,0000 0000 0000 0000 000000
2016-10-06 04:11:19,0.07,2.06,0.00,25.05,28.57,31.32,14.59,46.36,1034.20,2027.98,2697.61,2606.37,2926.67,600.20,602.38,31.27,0000 0000 0000 0000 000000
2016-10-06 04:16:20,0.04,2.07,0.00,24.98,28.58,31.31,14.62,46.27,1034.20,2027.99,2696.62,2605.77,2925.92,599.86,602.18,31.32,0000 0000 0000 0000 000000
2016-10-06 04:21:21,0.05,2.07,0.00,25.02,28.59,31.35,14.59,46.31,1034.20,2027.98,2695.71,2605.04,2925.07,599.96,602.12,31.37,0000 0000 0000 0000 000000
2016-10-06 04:26:23,0.07,2.07,0.00,25.05,28.60,31.34,14.55,46.25,1034.19,2027.98,2694.78,2604.46,2924.34,600.13,602.29,31.42,0000 0000 0000 0000 000000
2016-10-06 04:31:24,0.07,2.07,0.00,25.00,28.60,31.31,14.53,46.25,1034.17,2027.98,2693.65,2603.64,2923.53,599.84,602.08,31.47,0000 0000 0000 0000 000000
2016-10-06 04:36:25,0.07,2.08,0.00,25.01,28.60,31.31,14.55,46.15,1034.13,2027.96,2692.29,2602.78,2922.27,599.78,601.94,31.52,0000 0000 0000 0000 000000
2016-10-06 04:41:26,0.07,2.08,0.00,25.03,28.60,31.34,14.63,46.27,1034.16,2027.93,2691.18,2601.84,2921.52,600.22,602.48,31.57,0000 0000 0000 0000 000000
2016-10-06 04:46:27,0.08,2.09,0.00,25.01,28.60,31.36,14.60,46.36,1034.16,2027.94,2689.70,2600.99,2920.36,599.97,602.26,31.62,0000 0000 0000 0000 000000
2016-10-06 04:51:29,0.08,2.09,0.00,25.01,28.61,31.38,14.67,46.37,1034.19,2027.94,2688.35,2599.93,2919.30,600.04,602.29,31.67,0000 0000 0000 0000 000000
2016-10-06 04:56:30,0.06,2.10,0.00,24.99,28.62,31.35,14.53,46.37,1034.19,2027.92,2687.00,2599.02,2918.09,599.63,601.88,31.72,0000 0000 0000 0000 000000
2016-10-06 05:01:32,0.07,2.10,0.00,24.99,28.62,31.34,14.62,46.36,1034.19,2027.83,2685.78,2598.13,2917.21,599.95,602.25,31.77,0000 0000 0000 0000 000000
2016-10-06 05:06:33,0.10,2.10,0.00,24.99,28.62,31.35,14.70,46.43,1034.20,2027.76,2684.02,2596.84,2915.77,600.17,602.46,31.82,0000 0000 0000 0000 000000
2016-10-06 05:11:34,0.04,2.11,0.00,25.03,28.62,31.37,14.59,46.36,1034.21,2027.68,2682.89,2596.04,2914.93,599.99,602.24,31.87,0000 0000 0000 0000 000000
2016-10-06 05:16:35,0.07,2.11,0.00,25.03,28.62,31.35,14.52,46.36,1034.24,2027.63,2681.74,2595.33,2914.05,599.90,602.27,31.92,0000 0000 0000 0000 000000
2016-10-06 05:21:36,0.03,2.11,0.00,25.03,28.62,31.37,14.57,46.31,1034.24,2027.35,2680.75,2594.62,2913.15,599.86,602.20,31.97,0000 0000 0000 0000 000000
2016-10-06 05:26:38,0.04,2.11,0.00,25.02,28.62,31.33,14.58,46.44,1034.26,2027.15,2679.79,2593.91,2912.42,599.81,602.01,32.03,0000 0000 0000 0000 000000
2016-10-06 05:31:39,0.08,2.12,0.00,25.04,28.62,31.35,14.65,46.42,1034.25,2027.08,2678.44,2592.92,2911.32,599.82,602.05,32.08,0000 0000 0000 0000 000000
2016-10-06 05:36:40,0.12,2.12,0.00,25.02,28.63,31.35,14.63,46.27,1034.38,2027.15,2676.55,2591.63,2909.81,599.99,602.25,32.13,0000 0000 0000 0000 000000
2016-10-06 05:41:41,0.11,2.13,0.00,25.07,28.63,31.40,14.50,46.20,1034.43,2027.08,2674.49,2590.11,2908.18,599.63,601.84,32.18,0000 0000 0000 0000 000000
2016-10-06 05:46:43,0.10,2.14,0.00,25.01,28.64,31.36,14.60,46.23,1034.50,2027.12,2672.73,2588.93,2906.85,599.92,602.29,32.23,0000 0000 0000 0000 000000
2016-10-06 05:51:44,0.12,2.14,0.00,25.00,28.65,31.37,14.63,46.33,1034.49,2027.08,2670.98,2587.61,2905.41,600.01,602.54,32.28,0000 0000 0000 0000 000000
2016-10-06 05:56:45,0.08,2.15,0.00,25.04,28.65,31.37,14.59,46.32,1034.35,2027.03,2669.32,2586.36,2904.07,600.01,602.25,32.33,0000 0000 0000 0000 000000
2016-10-06 06:01:46,0.04,2.15,0.00,25.02,28.65,31.35,14.62,46.31,1034.29,2027.02,2668.44,2585.97,2903.27,600.17,602.40,32.38,0000 0000 0000 0000 000000
2016-10-06 06:06:48,0.03,2.15,0.00,25.04,28.65,31.38,14.64,46.31,1034.31,2027.01,2667.98,2585.27,2902.94,600.30,602.51,32.43,0000 0000 0000 0000 000000
2016-10-06 06:11:49,0.04,2.15,0.00,25.00,28.65,31.35,14.52,46.37,1034.28,2027.01,2667.19,2585.00,2902.17,600.03,602.38,32.48,0000 0000 0000 0000 000000
2016-10-06 06:16:51,0.02,2.15,0.00,24.98,28.65,31.38,14.60,46.42,1034.29,2027.03,2666.85,2584.71,2901.99,599.69,602.06,32.53,0000 0000 0000 0000 000000
2016-10-06 06:21:52,0.05,2.16,0.00,25.06,28.65,31.41,14.54,46.32,1034.27,2027.05,2666.10,2584.06,2901.54,599.84,602.05,32.58,0000 0000 0000 0000 000000
2016-10-06 06:26:54,0.01,2.16,0.00,25.00,28.65,31.35,14.64,46.39,1034.31,2027.04,2665.76,2583.98,2901.02,600.15,602.50,32.63,0000 0000 0000 0000 000000
2016-10-06 06:31:55,0.05,2.16,0.00,25.00,28.65,31.35,14.60,46.41,1034.56,2027.03,2665.02,2583.32,2900.48,599.89,602.46,32.68,0000 0000 0000 0000 000000
2016-10-06 06:36:56,0.02,2.16,0.00,25.04,28.65,31.38,14.62,46.38,1034.62,2027.03,2664.53,2583.00,2900.00,600.09,602.41,32.73,0000 0000 0000 0000 000000
2016-10-06 06:41:58,0.02,2.16,0.00,24.95,28.65,31.33,14.59,46.42,1034.60,2027.02,2664.00,2582.83,2899.79,600.02,602.63,32.78,0000 0000 0000 0000 000000
2016-10-06 06:46:59,0.05,2.17,0.00,25.01,28.65,31.35,14.65,46.29,1034.66,2027.02,2663.36,2582.06,2899.04,600.30,602.81,32.83,0000 0000 0000 0000 000000
2016-10-06 06:52:00,0.01,2.17,0.00,25.06,28.65,31.38,14.58,46.22,1034.68,2027.01,2662.93,2581.96,2898.76,600.39,602.79,32.89,0000 0000 0000 0000 000000
2016-10-06 06:57:01,0.06,2.17,0.00,25.01,28.65,31.37,14.62,46.32,1034.68,2027.02,2662.15,2581.32,2898.06,599.89,602.32,32.94,0000 0000 0000 0000 000000
2016-10-06 07:02:03,0.03,2.17,0.00,25.01,28.65,31.37,14.53,46.34,1034.68,2027.00,2661.41,2580.98,2897.61,600.13,602.65,32.99,0000 0000 0000 0000 000000
2016-10-06 07:07:04,0.04,2.17,0.00,25.03,28.65,31.37,14.52,46.41,1034.68,2027.01,2660.92,2580.33,2897.02,599.53,602.14,33.04,0000 0000 0000 0000 000000
2016-10-06 07:12:06,0.03,2.18,0.00,25.01,28.65,31.39,14.55,46.35,1034.68,2027.00,2660.14,2580.00,2896.58,599.92,602.48,33.09,0000 0000 0000 0000 000000
2016-10-06 07:17:07,0.04,2.18,0.00,24.95,28.65,31.37,14.56,46.31,1034.68,2027.00,2659.60,2579.70,2896.02,600.12,602.75,33.14,0000 0000 0000 0000 000000
2016-10-06 07:22:08,0.03,2.18,0.00,24.99,28.65,31.37,14.65,46.31,1034.68,2027.01,2658.98,2579.03,2895.65,599.96,602.46,33.19,0000 0000 0000 0000 000000
2016-10-06 07:27:09,0.03,2.18,0.00,25.03,28.65,31.38,14.63,46.29,1034.68,2027.01,2658.27,2578.93,2895.02,600.13,602.56,33.24,0000 0000 0000 0000 000000
2016-10-06 07:32:11,0.03,2.18,0.00,25.03,28.65,31.37,14.62,46.27,1034.69,2027.01,2657.95,2578.26,2894.79,600.10,602.65,33.29,0000 0000 0000 0000 000000
2016-10-06 07:37:12,0.04,2.19,0.00,24.99,28.65,31.35,14.63,46.35,1034.69,2027.01,2657.10,2577.84,2893.96,600.00,602.53,33.34,0000 0000 0000 0000 000000
2016-10-06 07:42:13,0.17,2.19,0.00,25.03,28.66,31.35,14.66,46.38,1034.70,2027.00,2654.90,2576.19,2892.27,600.02,602.53,33.39,0000 0000 0000 0000 000000
2016-10-06 07:47:14,0.18,2.20,0.00,25.07,28.66,31.39,14.64,46.43,1034.70,2027.01,2651.92,2574.14,2889.97,599.71,602.11,33.44,0000 0000 0000 0000 000000
2016-10-06 07:52:16,0.15,2.21,0.00,25.03,28.66,31.37,14.61,46.52,1034.69,2027.00,2649.32,2572.31,2887.92,599.93,602.51,33.49,0000 0000 0000 0000 000000
2016-10-06 07:57:17,0.06,2.21,0.00,24.98,28.66,31.36,14.43,46.46,1034.69,2027.00,2648.03,2571.15,2886.99,599.71,602.31,33.54,0000 0000 0000 0000 000000
2016-10-06 08:02:18,0.05,2.22,0.00,25.05,28.67,31.38,14.57,46.42,1034.70,2027.00,2647.18,2570.82,2886.15,599.80,602.28,33.59,0000 0000 0000 0000 000000
2016-10-06 08:07:20,0.05,2.22,0.00,25.06,28.67,31.39,14.55,46.48,1034.76,2027.00,2646.56,2570.06,2885.75,600.14,602.62,33.64,0000 0000 0000 0000 000000
2016-10-06 08:12:21,0.02,2.22,0.00,24.98,28.67,31.37,14.60,46.51,1034.83,2027.00,2645.97,2569.94,2885.03,599.69,602.33,33.69,0000 0000 0000 0000 000000
2016-10-06 08:17:23,0.05,2.22,0.00,25.02,28.67,31.34,14.58,46.57,1034.90,2027.00,2645.18,2569.19,2884.70,600.05,602.70,33.74,0000 0000 0000 0000 000000
2016-10-06 08:22:24,0.20,2.23,0.00,25.06,28.67,31.37,14.55,46.48,1034.90,2027.00,2642.91,2567.75,2882.83,599.99,602.58,33.79,0000 0000 0000 0000 000000
2016-10-06 08:27:25,0.62,2.25,0.00,25.05,28.67,31.37,14.64,46.51,1034.88,2027.00,2635.48,2561.82,2876.41,600.23,602.55,33.85,0000 0000 0000 0000 000000
2016-10-06 08:32:27,0.27,2.28,0.00,25.05,28.67,31.36,14.64,46.63,1034.85,2027.00,2628.95,2556.31,2870.33,600.19,602.80,33.90,0000 0000 0000 0000 000000
2016-10-06 08:37:28,1.09,2.31,0.00,25.02,28.67,31.38,14.59,46.58,1035.01,2027.00,2617.21,2547.25,2860.10,599.87,602.64,33.95,0000 0000 0000 0000 000000
2016-10-06 08:42:29,0.38,2.35,0.00,25.03,28.67,31.37,14.59,46.44,1035.13,2026.99,2607.95,2539.96,2851.88,599.56,602.38,34.00,0000 0000 0000 0000 000000
2016-10-06 08:47:31,0.12,2.36,0.00,25.03,28.67,31.38,14.67,46.62,1035.15,2026.99,2605.40,2538.06,2849.67,599.91,602.65,34.05,0000 0000 0000 0000 000000
2016-10-06 08:52:32,0.05,2.36,0.00,25.05,28.67,31.35,14.63,46.54,1035.13,2026.99,2604.73,2537.18,2848.99,599.99,602.72,34.10,0000 0000 0000 0000 000000
2016-10-06 08:57:33,0.03,2.36,0.00,25.04,28.67,31.36,14.68,46.52,1035.15,2026.98,2603.98,2536.97,2848.38,600.18,602.92,34.15,0000 0000 0000 0000 000000
2016-10-06 09:02:34,0.08,2.37,0.00,25.06,28.67,31.36,14.63,46.48,1035.17,2026.99,2602.96,2536.14,2847.57,600.16,602.84,34.20,0000 0000 0000 0000 000000
2016-10-06 09:07:36,0.13,2.37,0.00,25.03,28.67,31.37,14.64,46.34,1035.17,2026.98,2601.17,2534.81,2846.12,600.01,602.77,34.25,0000 0000 0000 0000 000000
2016-10-06 09:12:37,0.12,2.38,0.00,25.06,28.67,31.38,14.68,46.42,1035.17,2026.97,2599.07,2533.37,2844.50,600.12,602.86,34.30,0000 0000 0000 0000 000000
2016-10-06 09:17:39,0.09,2.38,0.00,25.04,28.67,31.34,14.58,46.48,1035.17,2026.98,2597.50,2532.17,2843.24,599.68,602.42,34.35,0000 0000 0000 0000 000000
2016-10-06 09:22:40,0.08,2.39,0.00,25.02,28.67,31.34,14.62,46.51,1035.17,2026.99,2596.07,2531.16,2842.11,600.32,603.03,34.40,0000 0000 0000 0000 000000
2016-10-06 09:27:42,0.07,2.39,0.00,25.06,28.67,31.37,14.66,46.42,1035.17,2026.98,2594.93,2530.28,2841.14,600.00,602.70,34.45,0000 0000 0000 0000 000000
2016-10-06 09:32:43,0.07,2.40,0.00,25.04,28.67,31.36,14.56,46.40,1035.16,2026.97,2593.96,2529.50,2840.19,599.81,602.57,34.50,0000 0000 0000 0000 000000
2016-10-06 09:37:44,0.04,2.40,0.00,25.00,28.67,31.35,14.59,46.42,1035.17,2026.99,2593.04,2528.97,2839.62,600.12,602.85,34.55,0000 0000 0000 0000 000000
2016-10-06 09:42:45,0.06,2.40,0.00,25.04,28.67,31.38,14.65,46.42,1035.17,2026.99,2592.13,2528.12,2838.93,600.32,602.95,34.60,0000 0000 0000 0000 000000
2016-10-06 09:47:46,0.03,2.41,0.00,25.01,28.68,31.37,14.57,46.37,1035.17,2026.98,2591.41,2527.91,2838.15,599.67,602.58,34.65,0000 0000 0000 0000 000000
2016-10-06 09:52:48,0.04,2.41,0.00,25.04,28.68,31.39,14.68,46.27,1035.17,2026.98,2590.89,2527.16,2837.83,600.79,603.56,34.70,0000 0000 0000 0000 000000
2016-10-06 09:57:49,0.04,2.41,0.00,25.06,28.68,31.37,14.62,46.36,1035.17,2026.97,2590.07,2526.90,2837.06,599.99,602.64,34.76,0000 0000 0000 0000 000000
2016-10-06 10:02:51,0.04,2.41,0.00,25.09,28.68,31.39,14.65,46.47,1035.17,2026.98,2589.64,2526.15,2836.83,600.26,602.92,34.81,0000 0000 0000 0000 000000
2016-10-06 10:07:52,0.02,2.41,0.00,25.06,28.68,31.39,14.52,46.47,1035.17,2026.97,2589.02,2525.97,2836.07,599.93,602.65,34.86,0000 0000 0000 0000 000000
2016-10-06 10:12:53,0.06,2.42,0.00,25.04,28.68,31.39,14.59,46.49,1035.18,2026.98,2588.30,2525.31,2835.67,600.20,602.98,34.91,0000 0000 0000 0000 000000
2016-10-06 10:17:55,0.06,2.42,0.00,24.97,28.68,31.36,14.65,46.55,1035.17,2026.97,2587.47,2524.71,2834.82,600.32,603.22,34.96,0000 0000 0000 0000 000000
2016-10-06 10:22:56,0.09,2.42,0.00,25.01,28.69,31.36,14.62,46.63,1035.17,2026.98,2586.15,2523.67,2833.65,600.32,603.20,35.01,0000 0000 0000 0000 000000
2016-10-06 10:27:57,0.04,2.43,0.00,25.05,28.69,31.38,14.59,46.46,1035.19,2026.96,2585.10,2522.97,2832.83,600.07,602.79,35.06,0000 0000 0000 0000 000000
2016-10-06 10:32:58,0.07,2.43,0.00,25.06,28.69,31.38,14.59,46.48,1035.19,2026.98,2584.36,2522.23,2832.05,599.93,602.67,35.11,0000 0000 0000 0000 000000
2016-10-06 10:38:00,0.03,2.43,0.00,25.05,28.69,31.39,14.61,46.38,1035.19,2026.94,2583.80,2521.93,2831.48,599.94,602.69,35.16,0000 0000 0000 0000 000000
2016-10-06 10:43:01,0.05,2.44,0.00,25.07,28.70,31.39,14.64,46.30,1035.18,2026.96,2582.97,2521.14,2830.91,600.35,603.01,35.21,0000 0000 0000 0000 000000
2016-10-06 10:48:03,0.10,2.44,0.00,25.06,28.70,31.40,14.64,46.44,1035.19,2026.96,2581.59,2520.21,2829.76,600.08,602.81,35.26,0000 0000 0000 0000 000000
2016-10-06 10:53:04,0.16,2.45,0.00,25.01,28.70,31.35,14.57,46.43,1035.18,2026.98,2579.30,2518.62,2827.97,600.12,602.94,35.31,0000 0000 0000 0000 000000
2016-10-06 10:58:05,0.17,2.45,0.00,25.09,28.70,31.37,14.57,46.58,1035.17,2026.95,2576.55,2516.62,2825.75,599.71,602.44,35.36,0000 0000 0000 0000 000000
2016-10-06 11:03:06,0.17,2.46,0.00,25.07,28.70,31.39,14.61,46.51,1035.17,2026.96,2574.00,2514.78,2823.71,599.98,602.71,35.41,0000 0000 0000 0000 000000
2016-10-06 11:08:07,0.08,2.47,0.00,25.05,28.70,31.37,14.66,46.43,1035.17,2026.91,2572.38,2513.55,2822.28,599.81,602.54,35.46,0000 0000 0000 0000 000000
2016-10-06 11:13:09,0.06,2.47,0.00,25.03,28.70,31.37,14.62,46.56,1035.18,2026.93,2571.14,2512.74,2821.28,599.90,602.81,35.51,0000 0000 0000 0000 000000
2016-10-06 11:18:10,0.06,2.48,0.00,25.06,28.70,31.38,14.61,46.50,1035.17,2026.91,2570.15,2512.02,2820.52,600.01,602.68,35.56,0000 0000 0000 0000 000000
2016-10-06 11:23:12,0.05,2.48,0.00,25.01,28.70,31.39,14.59,46.54,1035.17,2026.88,2569.42,2511.44,2819.93,599.95,602.97,35.62,0000 0000 0000 0000 000000
2016-10-06 11:28:13,0.05,2.48,0.00,25.01,28.70,31.37,14.59,46.62,1035.17,2026.91,2568.66,2510.95,2819.10,600.04,602.93,35.67,0000 0000 0000 0000 000000
2016-10-06 11:33:14,0.06,2.49,0.00,25.05,28.70,31.38,14.64,46.45,1035.17,2026.90,2567.75,2510.14,2818.50,599.90,602.64,35.72,0000 0000 0000 0000 000000
2016-10-06 11:38:15,0.14,2.49,0.00,25.02,28.70,31.38,14.54,46.57,1035.17,2026.95,2566.24,2509.03,2817.06,599.83,602.76,35.77,0000 0000 0000 0000 000000
2016-10-06 11:43:17,0.14,2.50,0.00,25.06,28.70,31.38,14.58,46.67,1035.17,2026.92,2563.91,2507.27,2814.99,599.80,602.66,35.82,0000 0000 0000 0000 000000
2016-10-06 11:48:18,0.13,2.51,0.00,25.06,28.70,31.39,14.63,46.59,1035.17,2026.90,2561.69,2505.69,2812.96,600.07,602.78,35.87,0000 0000 0000 0000 000000
2016-10-06 11:53:20,0.15,2.51,0.00,25.07,28.70,31.38,14.58,46.54,1035.17,2026.89,2559.51,2503.93,2810.99,599.86,602.61,35.92,0000 0000 0000 0000 000000
2016-10-06 11:58:21,0.10,2.52,0.00,25.06,28.70,31.37,14.60,46.60,1035.17,2026.89,2558.00,2502.57,2809.44,599.97,602.80,35.97,0000 0000 0000 0000 000000
2016-10-06 12:03:23,0.04,2.52,0.00,25.06,28.70,31.39,14.54,46.46,1035.17,2026.81,2557.04,2501.94,2808.56,599.65,602.44,36.02,0000 0000 0000 0000 000000
2016-10-06 12:08:24,0.05,2.53,0.00,25.07,28.70,31.36,14.54,46.47,1035.17,2026.77,2556.21,2501.11,2807.84,599.76,602.49,36.07,0000 0000 0000 0000 000000
2016-10-06 12:13:25,0.06,2.53,0.00,25.04,28.70,31.36,14.55,46.52,1035.17,2026.66,2555.19,2500.39,2807.01,599.77,602.64,36.12,0000 0000 0000 0000 000000
2016-10-06 12:18:26,0.06,2.53,0.00,25.05,28.70,31.36,14.61,46.48,1035.17,2026.81,2554.43,2499.96,2806.26,599.90,602.59,36.17,0000 0000 0000 0000 000000
2016-10-06 12:23:28,0.06,2.54,0.00,25.09,28.70,31.39,14.55,46.43,1035.17,2026.90,2553.60,2499.17,2805.57,599.87,602.48,36.22,0000 0000 0000 0000 000000
2016-10-06 12:28:29,0.02,2.54,0.00,25.11,28.70,31.38,14.48,46.42,1035.17,2026.63,2552.75,2498.60,2804.79,599.92,602.54,36.27,0000 0000 0000 0000 000000
2016-10-06 12:33:31,0.08,2.54,0.00,25.06,28.70,31.37,14.56,46.58,1035.18,2026.46,2551.63,2497.69,2803.73,599.80,602.50,36.32,0000 0000 0000 0000 000000
2016-10-06 12:38:32,0.12,2.55,0.00,25.05,28.70,31.41,14.60,46.58,1035.19,2026.74,2550.24,2496.67,2802.57,599.96,602.78,36.37,0000 0000 0000 0000 000000
2016-10-06 12:43:33,0.09,2.55,0.00,25.07,28.71,31.40,14.61,46.58,1035.18,2026.65,2548.52,2495.54,2801.15,600.04,602.92,36.42,0000 0000 0000 0000 000000
2016-10-06 12:48:35,0.05,2.56,0.00,25.06,28.72,31.40,14.55,46.57,1035.17,2026.65,2547.29,2494.79,2800.08,599.82,602.60,36.47,0000 0000 0000 0000 000000
2016-10-06 12:53:36,0.03,2.56,0.00,25.02,28.72,31.38,14.62,46.71,1035.17,2026.32,2546.23,2493.95,2799.18,600.17,602.90,36.53,0000 0000 0000 0000 000000